Вернуться в каталог

SL-16 DEB

АктивенLEO
NORAD 25410·DEBRIS·🇷🇺 Russia

Запущен Jul 28, 1998 с Baikonur Cosmodrome

Loading…

Ближайшие Пролёты (ближайшие 24 часа)

TLE

СвежийSource: Space-Track

Эпоха: Sep 14, 2026, 03:49 UTC

1 25410U 98045D   26257.15906787  .00000053  00000-0  90966-4 0  9995
2 25410  70.9779 225.9028 0207269  15.0193 358.8830 13.71576279407190

Отслеживайте SL-16 DEB в реальном времени с AllMySat

Download on the App Store